STARLINK-31962, 59936

Orbit data source: Space-Track

STARLINK-31962, 59936 is a payload satellite owned by SpaceX/Seattle (US) in LEO that was launched on Sat, 01 Jun 2024 UTC via an FALCON 9 launch vehicle from the Air Force Eastern Test Range (AFETR). Payloads include a variety of satellites, spacecraft, and rockets equipped with specific instruments for various scientific and technological missions. These include communications satellites like Starlink; space stations such as the ISS; scientific satellites like the Hubble; Earth observation satellites from companies like Planet Labs, Umbra, and HawkEye 360; GPS; miniature CubeSats for education and research; and military/defense satellites.

Loading next visibility...
STARLINK-31962 details
Identifier
59936, 2024-106Q
Orbit
LEO
Last TLE update13 hours ago
Origin
Flag of USSpaceX/Seattle (US)
ManufacturerSpaceX/Seattle
MissionOperational spacecraft
Bus & MotorSTARLINK V2M, Unknown motor
Mass730 kg wet, ~700 kg dry
Launch date (UTC)
2024-06-01 (8 months ago)
Launch vehicle
FALCON 9
Launch site
Air Force Eastern Test Range (AFETR)
Object type
Payload
Rocket body
Debris
Shape & HBRUnknown
Radar Cross SectionLarge (>1 m²)

Expand to show TLE details & history

TLE from 13 hours ago
0 STARLINK-31962
1 59936U 24106Q   25043.01923014  .00002558  00000-0  68440-4 0  9995
2 59936  43.0043  22.3825 0001351 272.3562  87.7139 15.40721010 40737
Epoch: 2025-02-12T00:27Z
Definitive object data (Epoch: 2025-02-12T00:27:41.484Z)
Latitude-0.00006°
Longitude-126.85613°
Altitude443.718 km
Speed7.648 km/s
True Right ascension01h 29m 31s
True Declination0° 00' 00"
Sunlit
Object was in daylight at TLE epoch
Visualization TLE readout
Latitude-25.38229°
Longitude80.31849°
Altitude449.756 km
Speed7.643 km/s
Apparent Right ascension12h 27m 30s
Apparent Declination-74° 05' 14"
Sunlit
Object is in daylight
Visualization observer readout
Local Sidereal Time16:22:10
Azimuth195.774° SSW
Elevation-30.513°
Doppler factor1
Orbital elements
Apogee altitude446.858 km
Perigee altitude445.014 km
Semi-major axis6,824.073 km
Eccentricity0.0001351
Inclination43.0043°
RAAN22.3825°
Arg. of periapsis272.3562°
True anomaly87.72937°
Mean anomaly87.7139°
Eccentric anomaly87.72163°
Mean motion3.85015 °/min
BSTAR0.00006844
Orbital period93.5 mins
Loading maneuver chart data...
Loading historical data...
Loading historical data...
Loading historical data...
Loading historical data...
Loading historical data...
Loading historical data...
Loading historical data...

STARLINK-31962 Visibility forecast

Observer location: undefined°, undefined

Span
Click to sort rows by Start time (UTC) header in descending order
Start Az.
Max El. time (UTC)
Max El. Az.
Max El.
End time (UTC)
End Az.
6 mins2025-02-13 01:33:11.304Z215.057° SW2025-02-13 01:36:11.304Z153.457° SSE28.761°2025-02-13 01:39:11.304Z86.456° E
5 mins2025-02-13 03:12:11.304Z267.461° W2025-02-13 03:14:11.304Z343.123° N42.811°2025-02-13 03:17:11.304Z69.195° E
5 mins2025-02-13 04:50:11.304Z292.998° NW2025-02-13 04:52:11.304Z341.858° N36.746°2025-02-13 04:55:11.304Z77.839° E
5 mins2025-02-13 06:29:11.304Z280.123° WNW2025-02-13 06:31:11.304Z144.114° SSE41.057°2025-02-13 06:34:11.304Z117.037° SE
|